Miscellaneous Local Product
Issued by NWS Hastings, NE

Home | Current Version | Previous Version | Text Only | Print | Product List | Glossary Off
Versions: 1 2 3 4 5 6 7 8 9 10 11 12 13 14 15 16 17 18 19 20 21 22 23 24 25 26 27 28 29 30 31 32 33 34 35 36 37 38 39 40 41 42 43 44 45 46 47 48 49 50

822
AXUS43 KGID 061702
MISGRI

GID CWA HOURLY WEATHER ROUNDUP
NATIONAL WEATHER SERVICE HASTINGS NE
1200 PM CDT FRI MAY 06 2016

NOTE: "FAIR" INDICATES FEW OR NO CLOUDS BELOW 12,000 FEET WITH NO
SIGNIFICANT WEATHER AND/OR OBSTRUCTIONS TO VISIBILITY.

...SOUTH CENTRAL NEBRASKA...

CITY           SKY/WX    TMP DP  RH WIND       PRES   REMARKS
GRAND ISLAND   SUNNY     79  47  32 S22G30    29.99F
HASTINGS       SUNNY     76  47  35 S18G25    30.00F
KEARNEY        MOSUNNY   75  48  38 S21G29    30.00S
ORD            SUNNY     76  52  43 SW21G28   29.96S
YORK           SUNNY     81  41  24 SW22      30.00F
AURORA         SUNNY     79  46  31 SW24G30   29.99F
HOLDREGE       MOSUNNY   73  47  38 S18G24    30.00S
HEBRON         SUNNY     78  40  25 SW16      30.03F

...NEBRASKA PANHANDLE...

CITY           SKY/WX    TMP DP  RH WIND       PRES   REMARKS
CHADRON        CLOUDY    76  50  40 S6        29.92S
ALLIANCE       CLOUDY    70  50  49 SE10      29.95F
SCOTTSBLUFF    MOSUNNY   70  50  49 SE10      29.95S
SIDNEY         MOSUNNY   70  48  45 SE9       29.97S

...WESTERN AND NORTH CENTRAL NEBRASKA...

CITY           SKY/WX    TMP DP  RH WIND       PRES   REMARKS
VALENTINE      MOSUNNY   79  47  32 SW16      29.92S
AINSWORTH      SUNNY     79  48  33 S22       29.93F
ONEILL         SUNNY     81  48  31 SW17      29.93S
BROKEN BOW     CLOUDY    76  50  40 S21       29.98F
IMPERIAL       SUNNY     74  49  41 S14       29.95F
NORTH PLATTE   SUNNY     77  51  40 S17       29.95F
MCCOOK         MOSUNNY   72  52  49 S15       29.96F

...EASTERN NEBRASKA...

CITY           SKY/WX    TMP DP  RH WIND       PRES   REMARKS
NORFOLK        SUNNY     80  48  32 SW20G30   29.94F
SO SIOUX CITY  SUNNY     81  50  33 SW20G28   29.95S
TEKAMAH        SUNNY     81  48  31 SW17      29.96F
COLUMBUS       SUNNY     81  46  30 SW16G26   29.99S
ALBION         SUNNY     78  49  36 SW20G28   29.97S
OMAHA EPPLEY   MOSUNNY   81  43  26 S14G22    29.99F
OFFUTT AFB     SUNNY     81  45  27 SW14G21   29.99F
MILLARD        SUNNY     79  46  31 SW10      30.00F
LINCOLN        SUNNY     83  41  22 SW16G23   30.01F
NEBRASKA CITY  SUNNY     77  43  29 SW15G21   30.03F
BEATRICE       SUNNY     78  44  30 SW17      30.03S
FALLS CITY     SUNNY     79  51  37 W12       30.04F

...NORTHERN KANSAS...

CITY           SKY/WX    TMP DP  RH WIND       PRES   REMARKS
GOODLAND       CLOUDY    72  49  44 S15       29.97F
HILL CITY      MOSUNNY   77  52  41 S17G28    29.99F
NORTON         SUNNY     75  43  31 SE20G26   29.98F
PHILLIPSBURG   SUNNY     79  48  34 S16G25    29.99F
SMITH CENTER   SUNNY     73  54  49 SE15      30.01F
BELOIT         SUNNY     79  46  31 S15       30.02F
HAYS           SUNNY     79  50  36 S26G35    30.01F
RUSSELL        SUNNY     79  48  33 S23       30.01F
CONCORDIA      SUNNY     78  48  34 S17G23    30.04S
SALINA         SUNNY     79  50  36 S16       30.06S
TOPEKA         SUNNY     77  49  37 SW7       30.07S



USA.gov is the U.S. government's official web portal to all federal, state and local government web resources and services.